Location: Peebles
(55.6412°N, 3.1714°W)
Time: 01:46:25
(UTC+01:00)

DMSP 7529 - Pass Details

Date: 11 July 2022
Orbit: 766 x 803 km, 98.7° (Epoch: 14 August)

Event Time Altitude Azimuth Distance (km) Brightness Sun altitude
Rises 22:56:13 0° 12° (NNE) 3,325 9.1 -6.7°
Reaches altitude 10° 22:58:59 10° 358° (N) 2,393 8.6 -6.9°
Maximum altitude 23:03:02 23° 308° (NW) 1,658 7.8 -7.2°
Drops below altitude 10° 23:07:05 10° 258° (WSW) 2,385 7.8 -7.5°
Sets 23:09:50 0° 244° (WSW) 3,311 8.3 -7.7°
